Hourly Data Report for July 16, 2015

KELOWNA UBCO
BRITISH COLUMBIA

49°56'26.700" N
119°24'00.760" W
456.00 m
1123996
71644
VKU

Download Data

Hourly Data (July 2015)
Hourly Data Report for July 16, 2015
TIME
LST
Temp Definition
°C
Dew Point Definition
°C
Rel Hum Definition
%
Precip. Amount Definition
mm

Wind Dir Definition
10's deg

Wind Spd Definition
km/h
Visibility Definition
km
Stn Press Definition
kPa
Hmdx Definition


Wind Chill Definition


Weather Definition


00:00 19.6 5.4 39 0.0       96.02     LegendNANA
01:00 19.6 5.4 39 0.0       96.02     LegendNANA
02:00 17.6 5.0 43 0.0       96.14     LegendNANA
03:00 16.8 4.0 43 0.0       96.22     LegendNANA
04:00 16.4 3.4 42 0.0       96.29     LegendNANA
05:00 16.6 3.7 42 0.0       96.32     LegendNANA
06:00 16.5 4.8 46 0.0       96.37     LegendNANA
07:00 17.2 3.9 41 0.0       96.45     LegendNANA
08:00 18.2 2.6 35 0.0       96.48     LegendNANA
09:00 20.0 2.6 32 0.0       96.49     LegendNANA
10:00 21.2 0.7 26 0.0       96.45     LegendNANA
11:00 21.5 0.5 25 0.0       96.43     LegendNANA
12:00 22.7 -0.7 21 0.0       96.41     LegendNANA
13:00 23.2 -0.9 20 0.0       96.37     LegendNANA
14:00 24.4 -0.4 19 0.0       96.35     LegendNANA
15:00 23.7 0.0 21 0.0       96.33     LegendNANA
16:00 23.3 -0.7 20 0.0       96.31     LegendNANA
17:00 23.2 0.4 22 0.0       96.30     LegendNANA
18:00 22.7 0.3 23 0.0       96.32     LegendNANA
19:00 22.1 1.0 25 0.0       96.33     LegendNANA
20:00 20.5 2.0 29 0.0       96.37     LegendNANA
21:00 18.6 2.9 35 0.0       96.43     LegendNANA
22:00 16.6 3.9 43 0.0       96.48     LegendNANA
23:00 15.7 4.3 47 0.0       96.49     LegendNANA

Notes on Data Quality.

Legend

  • E = Estimated
  • M = Missing
  • NA = Not Available*
  • [empty] = Indicates an unobserved value
Date modified: